星链-32524 (STARLINK-32524)

导读

STARLINK-32524是美国于2024年11月30日发射的星链系列卫星,隶属于SpaceX打造的星链卫星互联网星座项目,承担全球覆盖低延迟宽带互联网服务的组网任务,该卫星入轨后参与星链星座部署,为全球偏远地区、移动场景等用户提供互联网接入服务。

基本信息
目录编号:
62159
目录名称:
STARLINK-32524
国际标识:
2024-224W
轨道中心:
EARTH
卫星名称:
星链-32524
卫星全名:
星链-32524 (STARLINK-32524)
卫星状态:
在轨 (已飞行643 天)
发射日期:
2024-11-30 UTC
国别 :
美国 (US)
星等 :
--
轨道信息
数据来源 国际轨道数据 AOE轨道数据
星历时间 2026-09-03T09:00:14+0800
1天前
查看轨道信息
2026-08-30T08:00:00+0800
5天前
查看轨道信息
半长轴 6861.126km 6861.187km
偏心率 0.0002094 0.000169
轨道倾角 43.005° 43.001°
近地点辐角 283.771° 281.353°
升交点赤经 239.984° 262.810°
平近点角 76.290° 145.489°
近地点 481.552km 481.89km
远地点 484.426km 484.21km
周期 94.265分钟 94.267分钟
每日圈数 15.276004 15.2758
详细信息
固有亮度:
5
最大亮度:
2.5
卫星平台:
Starlink V1.0
覆盖范围:
全球
运营商:
太空探索技术公司
运营商所在国:
美国
制造商(研发单位):
太空探索技术公司
制造商所在国:
美国
使用方式:
暂无
卫星简介
Starlink 计划是 SpaceX 推出的全球卫星互联网项目,通过发射低轨道卫星,为全球尤其是偏远地区提供高速、低延迟的互联网服务。自 2019 年起,Starlink 已部署数千颗卫星,旨在缩小全球数字鸿沟,推动互联网普及。该项目还为军事、航空等行业提供通信支持,带来广泛经济效益。
2D轨道图
3D轨道图
轨道高度分析图
轨道倾角分析图
轨道综合分析图
查看轨道综合分析图